Home > Time Zones > World Clock > Weather > Serbia > Niš > Past weeks

Flag for Serbia Weather past 2 weeks in Niš, Serbia

Now
66 °F

Scattered clouds.


Feels Like: 66 °F
Forecast: 58 / 73 °F
Wind: 15 mph from Northwest

Location: Nis Airport

Current Time: May 24, 2015 at 11:16:26 AM

Latest Report: May 24, 2015 at 11:00 AM


Visibility: 5 mi

Pressure: 29.86 "Hg

Humidity: 73%

Dew point: 57 °F

Location of NišLocation

Historic Weather in Niš — Graph

°F

Niš temperature yesterday

Maximum temperature yesterday: 81 °F (at 4:00 PM)
Minimum temperature yesterday: 61 °F (at 3:30 AM)
Average temperature yesterday: 70 °F

Past Weeks' High & Low Weather Summary

 TemperatureHumidityPressure
High88 °F (May 21, 3:30 PM)100% (May 11, 2:00 AM)30.33 "Hg (May 11, 2:00 AM)
Low46 °F (May 13, 5:00 AM)22% (May 21, 4:00 PM)29.74 "Hg (May 14, 4:00 PM)
Average67 °F66%29.99 "Hg
* Reported May 9 10:00 AM — May 24 10:00 AM, Niš, Weather by CustomWeather, © 2015

Note: Actual official high and low records may vary slightly from our data, if they occured in-between our weather recording intervals... More about our weather records

Advertising

Niš weather history for previous 24 hours

 ConditionsComfort  
Time TempWeatherWind HumidityBarometerVisibility
10:00 AM
Sun, May 24
66 °FScattered clouds.15 mph73%29.86 "HgN/A
9:30 AM64 °FScattered clouds.14 mph78%29.86 "HgN/A
9:00 AM64 °FBroken clouds.15 mph78%29.86 "HgN/A
8:30 AM64 °FScattered clouds.18 mph78%29.86 "HgN/A
8:00 AM63 °FBroken clouds.17 mph83%29.86 "HgN/A
7:30 AM63 °FBroken clouds.13 mph83%29.86 "HgN/A
7:00 AM63 °FScattered clouds.13 mph83%29.83 "HgN/A
6:30 AM63 °FScattered clouds.14 mph83%29.83 "HgN/A
6:00 AM63 °FPassing clouds.8 mph83%29.83 "HgN/A
5:00 AM61 °FPassing clouds.6 mph83%29.83 "HgN/A
4:30 AM63 °FClear.2 mph77%29.83 "Hg10 mi
4:00 AM63 °FClear.No wind77%29.83 "Hg10 mi
3:30 AM63 °FClear.2 mph77%29.83 "Hg10 mi
3:00 AM63 °FPassing clouds.8 mph77%29.86 "HgN/A
2:30 AM64 °FPassing clouds.6 mph73%29.83 "HgN/A
2:00 AM63 °FPassing clouds.7 mph83%29.83 "HgN/A
1:30 AM61 °FPassing clouds.3 mph83%29.83 "HgN/A
1:00 AM61 °FClear.1 mph88%29.83 "Hg10 mi
12:30 AM61 °FClear.2 mph83%29.83 "Hg10 mi
12:00 AM63 °FClear.1 mph83%29.83 "Hg10 mi
11:30 PM
Sat, May 23
63 °FClear.1 mph77%29.83 "Hg10 mi
11:00 PM64 °FClear.No wind78%29.83 "Hg10 mi
10:30 PM63 °FClear.3 mph77%29.83 "Hg10 mi
10:00 PM68 °FClear.2 mph69%29.83 "Hg10 mi
9:30 PM68 °FClear.2 mph64%29.83 "Hg10 mi
9:00 PM70 °FPassing clouds.5 mph64%29.83 "HgN/A
8:30 PM72 °FPassing clouds.5 mph61%29.80 "HgN/A
8:00 PM72 °FPassing clouds.5 mph61%29.80 "HgN/A
7:30 PM73 °FPassing clouds.10 mph57%29.80 "HgN/A
7:00 PM75 °FPassing clouds.9 mph54%29.80 "HgN/A
6:30 PM75 °FPassing clouds.12 mph54%29.80 "HgN/A
6:00 PM79 °FPassing clouds.1 mph39%29.80 "HgN/A
5:30 PM79 °FPassing clouds.1 mph39%29.80 "HgN/A
5:00 PM79 °FPassing clouds.1 mph39%29.80 "HgN/A
4:30 PM79 °FPassing clouds.3 mph39%29.80 "HgN/A
4:00 PM81 °FPassing clouds.3 mph39%29.80 "HgN/A
3:30 PM79 °FPassing clouds.2 mph42%29.80 "HgN/A
3:00 PM79 °FPassing clouds.1 mph42%29.80 "HgN/A
2:30 PM79 °FPassing clouds.5 mph42%29.83 "HgN/A
2:00 PM77 °FPassing clouds.5 mph44%29.83 "HgN/A
1:30 PM77 °FPassing clouds.3 mph44%29.83 "HgN/A
1:00 PM77 °FScattered clouds.2 mph44%29.83 "HgN/A
12:30 PM75 °FScattered clouds.1 mph47%29.86 "HgN/A
12:00 PM73 °FScattered clouds.3 mph57%29.86 "HgN/A
11:30 AM72 °FScattered clouds.5 mph65%29.86 "HgN/A
11:00 AM70 °FPartly sunny.5 mph64%29.86 "HgN/A
Weather by CustomWeather, © 2015

See weather overviewHow to use our weather pages